Location: Stanford
(52.2833°N, 2.4333°W)
Time: 20:10:37
(UTC+00:00)

Lacrosse 5 - Pass Details

Date: 22 January 2021
Orbit: 715 x 724 km, 57.0° (Epoch: 26 February)

Event Time Altitude Azimuth Distance (km) Brightness Sun altitude
Rises 19:11:25 0° 297° (WNW) 3,124 6.2 -22.9°
Reaches altitude 10° 19:14:10 10° 283° (WNW) 2,200 5.4 -23.3°
Maximum altitude 19:18:10 24° 231° (SW) 1,464 4.0 -23.9°
Drops below altitude 10° 19:22:09 10° 179° (S) 2,191 4.3 -24.5°
Enters shadow 19:23:24 - 171° (S) 2,590 4.7 -24.7°
